OBJECT-A, 65488

Orbit data source: Space-Track

OBJECT-A, 65488 is a satellite owned by CASC (CN) in SSO that was launched on Fri, 05 Sep 2025 UTC via a GUSHENXING 1 launch vehicle from the Jiuquan Satellite Launch Center, China (JSC). Unknown objects in Earth's orbit typically refer to objects detected orbiting the Earth but have not yet been identified or cataloged. These objects could be anything from previously untracked satellites, spent rocket stages, debris from satellite collisions, or even natural meteoroids temporarily captured by Earth's gravity.

Loading next visibility...
Identifier
65488, 2025-197A
Orbit
SSO
Country
Flag of CNCN / PRC
Related business
None
Manufacturer
CALT
Mission
Operational spacecraft
Bus & Motor
YZ-1, Unknown motor
Mass
2,075 kg wet, 2,075 kg dry
Launch date (UTC)
2025-09-05 (2 weeks ago)
Launch vehicle
GUSHENXING 1
Launch site
Jiuquan Satellite Launch Center, China (JSC)
Object type
Unknown
Shape & HBR
Unknown
Radar Cross Section
Medium (>0.1 m² and <1 m²)

Expand to show TLE details & history
Last TLE update: 1 week ago

TLE from 1 week ago
0 OBJECT-A
1 65488U 25197A   25251.16062515  .00005816  00000-0  26729-3 0  9995
2 65488  97.4119  76.9324 0014068 275.9123  84.0509 15.20666998   416
Epoch: 2025-09-08T03:51Z
TLE epoch observation values (Epoch: 2025-09-08T03:51:18.012Z)
Latitude
-0.00004°
Longitude
31.63763°
Altitude
505.928 km
Speed
7.612 km/s
True Right ascension
05h 07m 43s
True Declination
0° 00' 00"
Sunlit
Object was in daylight at epoch
Visualization orbit readout
Latitude
Unknown
Longitude
Unknown
Altitude
Unknown
Speed
Unknown
Apparent Right ascension
Unknown
Apparent Declination
Unknown
Sunlit
N/A
Visualization observer readout
Local Sidereal Time
00:37:02
Azimuth
Unknown
Elevation
Unknown
Doppler factor
Unknown
Orbital elements
Apogee altitude
510.47 km
Perigee altitude
491.115 km
Semi-major axis
6,878.93 km
Eccentricity
0.00141
Inclination
97.4119°
RAAN
76.9324°
Arg. of periapsis
275.9123°
True anomaly
84.21127°
Mean anomaly
84.0509°
Eccentric anomaly
84.13108°
Mean motion
3.80419 °/min
Orbital period
94.63 mins
BSTAR
0.00026729
Loading maneuver chart data...
Computing Atmospheric mass density...
Loading historical data...
Loading historical data...
Loading historical data...
Loading historical data...
Loading historical data...
Loading historical data...
Loading historical data...
Other satellites on launch #197 in the year 2025 (2025-09-05 UTC)

Documentation

Showing up to 5 results
|